Time,TemperatureF,DewpointF,PressureIn,WindDirection,WindDirectionDegrees,WindSpeedMPH,WindSpeedGustMPH,Humidity,HourlyPrecipIn,Conditions,Clouds,dailyrainin,SoftwareType,DateUTC
2013-04-13 00:00:00,77.9,-99.9,29.92,South,184,5.0,5.0,255,0.00,,,0.07,Wunderground v.1.13,2013-04-13 04:00:00,
2013-04-13 00:10:00,77.9,-99.9,29.92,South,184,3.0,4.0,255,0.00,,,0.00,Wunderground v.1.13,2013-04-13 04:10:00,
2013-04-13 00:20:00,77.7,-99.9,29.92,South,184,3.0,3.0,255,0.00,,,0.00,Wunderground v.1.13,2013-04-13 04:20:00,
2013-04-13 00:25:00,77.7,-99.9,29.92,South,185,4.0,4.0,255,0.00,,,0.00,Wunderground v.1.13,2013-04-13 04:25:00,
2013-04-13 00:30:00,77.7,-99.9,29.92,South,185,4.0,4.0,255,0.00,,,0.00,Wunderground v.1.13,2013-04-13 04:30:00,
2013-04-13 00:35:00,77.7,-99.9,29.91,South,184,3.0,4.0,255,0.00,,,0.00,Wunderground v.1.13,2013-04-13 04:35:00,
2013-04-13 00:45:00,77.6,-99.9,29.91,South,180,3.0,3.0,255,0.00,,,0.00,Wunderground v.1.13,2013-04-13 04:45:00,
2013-04-13 00:50:00,77.6,-99.9,29.91,South,180,3.0,3.0,255,0.00,,,0.00,Wunderground v.1.13,2013-04-13 04:50:00,
2013-04-13 00:55:00,77.6,-99.9,29.91,South,180,3.0,3.0,255,0.00,,,0.00,Wunderground v.1.13,2013-04-13 04:55:00,
2013-04-13 01:00:00,77.6,-99.9,29.91,South,180,4.0,4.0,255,0.00,,,0.00,Wunderground v.1.13,2013-04-13 05:00:00,
2013-04-13 01:10:00,77.4,-99.9,29.91,South,183,4.0,7.0,255,0.00,,,0.00,Wunderground v.1.13,2013-04-13 05:10:00,
2013-04-13 01:15:00,77.4,-99.9,29.91,South,184,4.0,6.0,255,0.00,,,0.00,Wunderground v.1.13,2013-04-13 05:15:00,
2013-04-13 01:25:00,77.2,-99.9,29.90,South,183,4.0,5.0,255,0.00,,,0.00,Wunderground v.1.13,2013-04-13 05:25:00,
2013-04-13 01:35:00,77.0,-99.9,29.90,South,183,2.0,2.0,255,0.00,,,0.00,Wunderground v.1.13,2013-04-13 05:35:00,
2013-04-13 01:40:00,77.0,-99.9,29.90,South,184,1.0,6.0,255,0.00,,,0.00,Wunderground v.1.13,2013-04-13 05:40:00,
2013-04-13 01:45:00,76.8,-99.9,29.90,South,184,2.0,2.0,255,0.00,,,0.00,Wunderground v.1.13,2013-04-13 05:45:00,
2013-04-13 01:50:00,76.8,-99.9,29.90,South,184,3.0,3.0,255,0.00,,,0.00,Wunderground v.1.13,2013-04-13 05:50:00,
2013-04-13 01:55:00,76.8,-99.9,29.90,South,184,4.0,4.0,255,0.00,,,0.00,Wunderground v.1.13,2013-04-13 05:55:00,
2013-04-13 02:00:00,76.8,-99.9,29.90,South,184,4.0,4.0,255,0.00,,,0.00,Wunderground v.1.13,2013-04-13 06:00:00,
2013-04-13 02:10:00,76.8,-99.9,29.90,South,184,2.0,4.0,255,0.00,,,0.00,Wunderground v.1.13,2013-04-13 06:10:00,
2013-04-13 02:20:00,76.8,-99.9,29.89,South,182,3.0,3.0,255,0.00,,,0.00,Wunderground v.1.13,2013-04-13 06:20:00,
2013-04-13 02:30:00,76.8,-99.9,29.89,South,182,3.0,3.0,255,0.00,,,0.00,Wunderground v.1.13,2013-04-13 06:30:00,
2013-04-13 02:35:00,76.8,-99.9,29.89,South,182,3.0,3.0,255,0.00,,,0.00,Wunderground v.1.13,2013-04-13 06:35:00,
2013-04-13 02:45:00,76.8,-99.9,29.89,South,182,3.0,3.0,255,0.00,,,0.00,Wunderground v.1.13,2013-04-13 06:45:00,
2013-04-13 02:55:00,77.0,-99.9,29.89,South,178,3.0,5.0,255,0.00,,,0.00,Wunderground v.1.13,2013-04-13 06:55:00,
2013-04-13 03:00:00,77.0,-99.9,29.89,South,175,3.0,3.0,255,0.00,,,0.00,Wunderground v.1.13,2013-04-13 07:00:00,
2013-04-13 03:10:00,77.0,-99.9,29.89,South,175,2.0,2.0,255,0.00,,,0.00,Wunderground v.1.13,2013-04-13 07:10:00,
2013-04-13 03:15:00,77.2,-99.9,29.89,South,174,3.0,7.0,255,0.00,,,0.00,Wunderground v.1.13,2013-04-13 07:15:00,
2013-04-13 03:25:00,77.4,-99.9,29.89,South,178,3.0,8.0,255,0.00,,,0.00,Wunderground v.1.13,2013-04-13 07:25:00,
2013-04-13 03:35:00,77.6,-99.9,29.89,South,175,4.0,4.0,255,0.00,,,0.00,Wunderground v.1.13,2013-04-13 07:35:00,
2013-04-13 03:40:00,77.6,-99.9,29.89,South,175,4.0,6.0,255,0.00,,,0.00,Wunderground v.1.13,2013-04-13 07:40:00,
2013-04-13 03:45:00,77.6,-99.9,29.89,South,174,5.0,5.0,255,0.00,,,0.00,Wunderground v.1.13,2013-04-13 07:45:00,
2013-04-13 03:55:00,77.6,-99.9,29.87,South,175,5.0,7.0,255,0.00,,,0.00,Wunderground v.1.13,2013-04-13 07:55:00,
2013-04-13 04:10:00,77.2,-99.9,29.86,South,175,5.0,5.0,255,0.00,,,0.00,Wunderground v.1.13,2013-04-13 08:10:00,
2013-04-13 04:15:00,77.0,-99.9,29.86,South,180,6.0,12.0,255,0.00,,,0.00,Wunderground v.1.13,2013-04-13 08:15:00,
2013-04-13 04:20:00,76.8,-99.9,29.86,SSE,162,7.0,7.0,255,0.00,,,0.00,Wunderground v.1.13,2013-04-13 08:20:00,
2013-04-13 04:30:00,77.0,-99.9,29.86,SSE,166,6.0,6.0,255,0.00,,,0.00,Wunderground v.1.13,2013-04-13 08:30:00,
2013-04-13 04:35:00,77.0,-99.9,29.86,SSE,157,6.0,9.0,255,0.00,,,0.00,Wunderground v.1.13,2013-04-13 08:35:00,
2013-04-13 04:40:00,77.2,-99.9,29.86,South,169,7.0,7.0,255,0.00,,,0.00,Wunderground v.1.13,2013-04-13 08:40:00,
2013-04-13 04:45:00,77.2,-99.9,29.86,SSE,167,7.0,7.0,255,0.00,,,0.00,Wunderground v.1.13,2013-04-13 08:45:00,
2013-04-13 04:55:00,77.2,-99.9,29.86,South,178,6.0,6.0,255,0.00,,,0.00,Wunderground v.1.13,2013-04-13 08:55:00,
2013-04-13 05:25:00,77.0,-99.9,29.86,South,186,8.0,8.0,255,0.00,,,0.00,Wunderground v.1.13,2013-04-13 09:25:00,
2013-04-13 05:30:00,76.8,-99.9,29.86,South,180,8.0,8.0,255,0.00,,,0.00,Wunderground v.1.13,2013-04-13 09:30:00,
2013-04-13 05:45:00,76.3,-99.9,29.85,South,176,8.0,8.0,255,0.00,,,0.00,Wunderground v.1.13,2013-04-13 09:45:00,
2013-04-13 05:55:00,76.5,-99.9,29.86,South,178,6.0,6.0,255,0.00,,,0.00,Wunderground v.1.13,2013-04-13 09:55:00,
2013-04-13 06:10:00,76.5,-99.9,29.86,South,173,7.0,7.0,255,0.00,,,0.00,Wunderground v.1.13,2013-04-13 10:10:00,
2013-04-13 06:15:00,76.3,-99.9,29.86,SSE,165,8.0,8.0,255,0.00,,,0.00,Wunderground v.1.13,2013-04-13 10:15:00,
2013-04-13 06:20:00,76.0,-99.9,29.86,South,173,7.0,7.0,255,0.00,,,0.00,Wunderground v.1.13,2013-04-13 10:20:00,
2013-04-13 06:25:00,75.6,-99.9,29.86,South,186,6.0,6.0,255,0.00,,,0.00,Wunderground v.1.13,2013-04-13 10:25:00,
2013-04-13 06:35:00,75.4,-99.9,29.86,South,171,4.0,4.0,255,0.00,,,0.00,Wunderground v.1.13,2013-04-13 10:35:00,
2013-04-13 06:45:00,75.4,-99.9,29.86,South,183,5.0,5.0,255,0.00,,,0.00,Wunderground v.1.13,2013-04-13 10:45:00,
2013-04-13 06:50:00,75.4,-99.9,29.86,South,175,5.0,5.0,255,0.00,,,0.00,Wunderground v.1.13,2013-04-13 10:50:00,
2013-04-13 07:00:00,75.3,-99.9,29.86,South,180,4.0,4.0,255,0.00,,,0.00,Wunderground v.1.13,2013-04-13 11:00:00,
2013-04-13 07:10:00,75.3,-99.9,29.86,South,172,4.0,6.0,255,0.00,,,0.00,Wunderground v.1.13,2013-04-13 11:10:00,
2013-04-13 07:15:00,75.4,-99.9,29.86,South,171,5.0,7.0,255,0.00,,,0.00,Wunderground v.1.13,2013-04-13 11:15:00,
2013-04-13 07:25:00,76.0,-99.9,29.86,South,188,7.0,7.0,255,0.00,,,0.00,Wunderground v.1.13,2013-04-13 11:25:00,
2013-04-13 07:35:00,76.5,-99.9,29.86,South,178,5.0,8.0,255,0.00,,,0.00,Wunderground v.1.13,2013-04-13 11:35:00,
2013-04-13 07:40:00,77.0,-99.9,29.86,South,177,5.0,8.0,255,0.00,,,0.00,Wunderground v.1.13,2013-04-13 11:40:00,
2013-04-13 07:45:00,77.4,-99.9,29.86,South,188,6.0,9.0,255,0.00,,,0.00,Wunderground v.1.13,2013-04-13 11:45:00,
2013-04-13 07:50:00,77.6,-99.9,29.86,SSE,168,6.0,6.0,255,0.00,,,0.00,Wunderground v.1.13,2013-04-13 11:50:00,
2013-04-13 08:10:00,77.6,-99.9,29.87,South,186,7.0,7.0,255,0.00,,,0.00,Wunderground v.1.13,2013-04-13 12:10:00,
2013-04-13 08:20:00,78.1,-99.9,29.87,South,187,7.0,9.0,255,0.00,,,0.00,Wunderground v.1.13,2013-04-13 12:20:00,
2013-04-13 08:25:00,78.6,-99.9,29.87,South,187,7.0,7.0,255,0.00,,,0.00,Wunderground v.1.13,2013-04-13 12:25:00,
2013-04-13 08:35:00,79.4,-99.9,29.88,South,190,5.0,5.0,255,0.00,,,0.00,Wunderground v.1.13,2013-04-13 12:35:00,
2013-04-13 08:40:00,79.6,-99.9,29.88,South,178,6.0,6.0,255,0.00,,,0.00,Wunderground v.1.13,2013-04-13 12:40:00,
2013-04-13 08:45:00,79.8,-99.9,29.88,SSW,196,6.0,7.0,255,0.00,,,0.00,Wunderground v.1.13,2013-04-13 12:45:00,
2013-04-13 08:55:00,79.6,-99.9,29.88,SSW,194,7.0,7.0,255,0.00,,,0.00,Wunderground v.1.13,2013-04-13 12:55:00,
2013-04-13 09:00:00,79.8,-99.9,29.88,South,184,6.0,6.0,255,0.00,,,0.00,Wunderground v.1.13,2013-04-13 13:00:00,
2013-04-13 09:10:00,79.8,-99.9,29.89,South,177,7.0,9.0,255,0.00,,,0.00,Wunderground v.1.13,2013-04-13 13:10:00,
2013-04-13 09:25:00,80.3,-99.9,29.90,South,178,6.0,6.0,255,0.00,,,0.00,Wunderground v.1.13,2013-04-13 13:25:00,
2013-04-13 09:35:00,80.1,-99.9,29.91,South,176,6.0,6.0,255,0.00,,,0.00,Wunderground v.1.13,2013-04-13 13:35:00,
2013-04-13 09:45:00,80.7,-99.9,29.91,South,186,7.0,7.0,255,0.00,,,0.00,Wunderground v.1.13,2013-04-13 13:45:00,
2013-04-13 09:50:00,81.1,-99.9,29.92,South,189,6.0,6.0,255,0.00,,,0.00,Wunderground v.1.13,2013-04-13 13:50:00,
2013-04-13 09:55:00,81.2,-99.9,29.92,South,191,6.0,6.0,255,0.00,,,0.00,Wunderground v.1.13,2013-04-13 13:55:00,
2013-04-13 10:10:00,81.2,-99.9,29.93,SW,215,5.0,6.0,255,0.00,,,0.00,Wunderground v.1.13,2013-04-13 14:10:00,
2013-04-13 10:20:00,81.8,-99.9,29.93,West,261,4.0,5.0,255,0.00,,,0.00,Wunderground v.1.13,2013-04-13 14:20:00,
2013-04-13 10:25:00,81.6,-99.9,29.93,West,273,3.0,4.0,255,0.00,,,0.00,Wunderground v.1.13,2013-04-13 14:25:00,
2013-04-13 10:30:00,81.2,-99.9,29.93,WNW,294,4.0,4.0,255,0.00,,,0.00,Wunderground v.1.13,2013-04-13 14:30:00,
2013-04-13 10:35:00,81.2,-99.9,29.93,WNW,294,4.0,7.0,255,0.00,,,0.00,Wunderground v.1.13,2013-04-13 14:35:00,
2013-04-13 10:45:00,81.4,-99.9,29.93,NW,306,4.0,4.0,255,0.00,,,0.00,Wunderground v.1.13,2013-04-13 14:45:00,
2013-04-13 10:55:00,81.2,-99.9,29.93,NW,323,4.0,4.0,255,0.00,,,0.00,Wunderground v.1.13,2013-04-13 14:55:00,
2013-04-13 11:00:00,81.2,-99.9,29.93,NW,308,3.0,5.0,255,0.00,,,0.00,Wunderground v.1.13,2013-04-13 15:00:00,
2013-04-13 11:15:00,80.9,-99.9,29.94,NW,304,3.0,3.0,255,0.00,,,0.00,Wunderground v.1.13,2013-04-13 15:15:00,
2013-04-13 11:25:00,81.2,-99.9,29.93,NW,315,1.0,1.0,255,0.00,,,0.00,Wunderground v.1.13,2013-04-13 15:25:00,
2013-04-13 11:35:00,79.6,-99.9,29.94,SSE,159,3.0,4.0,255,0.00,,,0.00,Wunderground v.1.13,2013-04-13 15:35:00,
2013-04-13 11:45:00,80.5,-99.9,29.94,SSE,159,1.0,2.0,255,0.00,,,0.00,Wunderground v.1.13,2013-04-13 15:45:00,
2013-04-13 11:50:00,80.1,-99.9,29.94,SSE,159,2.0,2.0,255,0.00,,,0.00,Wunderground v.1.13,2013-04-13 15:50:00,
2013-04-13 12:00:00,79.6,-99.9,29.94,East,80,2.0,5.0,255,0.00,,,0.00,Wunderground v.1.13,2013-04-13 16:00:00,
2013-04-13 12:10:00,79.2,-99.9,29.93,East,80,1.0,3.0,255,0.00,,,0.00,Wunderground v.1.13,2013-04-13 16:10:00,
2013-04-13 12:20:00,79.4,-99.9,29.93,SE,136,3.0,4.0,255,0.00,,,0.00,Wunderground v.1.13,2013-04-13 16:20:00,
2013-04-13 12:30:00,79.6,-99.9,29.93,SE,146,3.0,3.0,255,0.00,,,0.00,Wunderground v.1.13,2013-04-13 16:30:00,
2013-04-13 12:40:00,79.6,-99.9,29.93,South,175,5.0,5.0,255,0.00,,,0.00,Wunderground v.1.13,2013-04-13 16:40:00,
2013-04-13 12:50:00,79.2,-99.9,29.93,South,180,5.0,6.0,255,0.00,,,0.00,Wunderground v.1.13,2013-04-13 16:50:00,
2013-04-13 13:10:00,77.7,-99.9,29.93,South,178,5.0,5.0,255,0.97,,,0.10,Wunderground v.1.13,2013-04-13 17:10:00,
2013-04-13 13:20:00,77.6,-99.9,29.93,South,178,1.0,1.0,255,0.64,,,0.18,Wunderground v.1.13,2013-04-13 17:20:00,
2013-04-13 13:25:00,76.5,-99.9,29.93,South,178,0.0,0.0,255,0.55,,,0.24,Wunderground v.1.13,2013-04-13 17:25:00,
2013-04-13 13:35:00,76.5,-99.9,29.92,South,178,0.0,0.0,255,0.07,,,0.25,Wunderground v.1.13,2013-04-13 17:35:00,
2013-04-13 13:40:00,77.0,-99.9,29.92,South,178,0.0,0.0,255,0.04,,,0.25,Wunderground v.1.13,2013-04-13 17:40:00,
2013-04-13 13:50:00,79.2,-99.9,29.91,SE,146,2.0,3.0,255,0.00,,,0.25,Wunderground v.1.13,2013-04-13 17:50:00,
2013-04-13 13:55:00,79.9,-99.9,29.91,SE,146,2.0,2.0,255,0.00,,,0.25,Wunderground v.1.13,2013-04-13 17:55:00,
2013-04-13 14:00:00,79.6,-99.9,29.91,SE,146,1.0,2.0,255,0.00,,,0.25,Wunderground v.1.13,2013-04-13 18:00:00,
2013-04-13 14:10:00,79.9,-99.9,29.90,SSE,149,1.0,1.0,255,0.00,,,0.25,Wunderground v.1.13,2013-04-13 18:10:00,
2013-04-13 14:20:00,80.7,-99.9,29.90,SSE,149,1.0,3.0,255,0.00,,,0.25,Wunderground v.1.13,2013-04-13 18:20:00,
2013-04-13 14:25:00,81.2,-99.9,29.90,SSE,154,2.0,6.0,255,0.00,,,0.25,Wunderground v.1.13,2013-04-13 18:25:00,
2013-04-13 14:30:00,82.2,-99.9,29.90,SSE,165,2.0,2.0,255,0.00,,,0.25,Wunderground v.1.13,2013-04-13 18:30:00,
2013-04-13 14:35:00,82.4,-99.9,29.89,SSE,165,3.0,3.0,255,0.00,,,0.25,Wunderground v.1.13,2013-04-13 18:35:00,
2013-04-13 14:40:00,82.2,-99.9,29.89,SSE,165,3.0,4.0,255,0.00,,,0.25,Wunderground v.1.13,2013-04-13 18:40:00,
2013-04-13 14:50:00,80.5,-99.9,29.89,SSE,163,3.0,4.0,255,0.00,,,0.25,Wunderground v.1.13,2013-04-13 18:50:00,
2013-04-13 14:55:00,79.6,-99.9,29.89,SSE,166,4.0,4.0,255,0.00,,,0.25,Wunderground v.1.13,2013-04-13 18:55:00,
2013-04-13 15:00:00,78.6,-99.9,29.89,SSE,167,4.0,4.0,255,0.00,,,0.25,Wunderground v.1.13,2013-04-13 19:00:00,
2013-04-13 15:10:00,77.9,-99.9,29.89,SSE,148,2.0,2.0,255,0.00,,,0.26,Wunderground v.1.13,2013-04-13 19:10:00,
2013-04-13 15:20:00,77.4,-99.9,29.90,SSE,149,1.0,1.0,255,0.00,,,0.26,Wunderground v.1.13,2013-04-13 19:20:00,
2013-04-13 15:30:00,77.2,-99.9,29.90,SSE,149,0.0,0.0,255,0.00,,,0.26,Wunderground v.1.13,2013-04-13 19:30:00,
2013-04-13 15:35:00,77.0,-99.9,29.90,SSE,149,0.0,0.0,255,0.00,,,0.26,Wunderground v.1.13,2013-04-13 19:35:00,
2013-04-13 15:45:00,77.2,-99.9,29.90,SSE,149,0.0,0.0,255,0.00,,,0.26,Wunderground v.1.13,2013-04-13 19:45:00,
2013-04-13 15:55:00,77.4,-99.9,29.90,SSE,149,0.0,0.0,255,0.00,,,0.27,Wunderground v.1.13,2013-04-13 19:55:00,
2013-04-13 16:00:00,77.7,-99.9,29.90,SE,140,1.0,1.0,255,0.00,,,0.27,Wunderground v.1.13,2013-04-13 20:00:00,
2013-04-13 16:10:00,77.0,-99.9,29.89,SE,140,1.0,1.0,255,0.00,,,0.27,Wunderground v.1.13,2013-04-13 20:10:00,
2013-04-13 16:15:00,76.3,-99.9,29.89,SE,140,1.0,1.0,255,0.00,,,0.27,Wunderground v.1.13,2013-04-13 20:15:00,
2013-04-13 16:20:00,76.5,-99.9,29.88,SE,140,0.0,0.0,255,0.00,,,0.27,Wunderground v.1.13,2013-04-13 20:20:00,
2013-04-13 16:30:00,76.3,-99.9,29.88,SE,140,0.0,0.0,255,0.00,,,0.27,Wunderground v.1.13,2013-04-13 20:30:00,
2013-04-13 16:40:00,76.5,-99.9,29.87,SE,140,1.0,1.0,255,0.00,,,0.27,Wunderground v.1.13,2013-04-13 20:40:00,
2013-04-13 16:50:00,76.7,-99.9,29.86,SE,140,1.0,2.0,255,0.00,,,0.27,Wunderground v.1.13,2013-04-13 20:50:00,
2013-04-13 17:00:00,76.7,-99.9,29.86,SE,140,1.0,1.0,255,0.00,,,0.27,Wunderground v.1.13,2013-04-13 21:00:00,
2013-04-13 17:10:00,76.8,-99.9,29.87,SE,140,0.0,1.0,255,0.00,,,0.27,Wunderground v.1.13,2013-04-13 21:10:00,
2013-04-13 17:20:00,76.7,-99.9,29.87,SE,140,2.0,2.0,255,0.00,,,0.27,Wunderground v.1.13,2013-04-13 21:20:00,
2013-04-13 17:25:00,76.5,-99.9,29.87,SE,140,2.0,2.0,255,0.00,,,0.27,Wunderground v.1.13,2013-04-13 21:25:00,
2013-04-13 17:30:00,76.3,-99.9,29.87,SE,140,1.0,2.0,255,0.00,,,0.27,Wunderground v.1.13,2013-04-13 21:30:00,
2013-04-13 17:35:00,76.1,-99.9,29.87,SE,140,2.0,2.0,255,0.00,,,0.27,Wunderground v.1.13,2013-04-13 21:35:00,
2013-04-13 17:45:00,76.0,-99.9,29.87,SE,140,1.0,1.0,255,0.00,,,0.27,Wunderground v.1.13,2013-04-13 21:45:00,
2013-04-13 17:55:00,76.0,-99.9,29.87,SE,140,1.0,1.0,255,0.00,,,0.27,Wunderground v.1.13,2013-04-13 21:55:00,
2013-04-13 18:00:00,76.0,-99.9,29.87,SE,146,1.0,1.0,255,0.00,,,0.27,Wunderground v.1.13,2013-04-13 22:00:00,
2013-04-13 18:10:00,76.0,-99.9,29.86,SSE,147,2.0,3.0,255,0.00,,,0.27,Wunderground v.1.13,2013-04-13 22:10:00,
2013-04-13 18:20:00,75.8,-99.9,29.87,SSE,147,2.0,2.0,255,0.00,,,0.27,Wunderground v.1.13,2013-04-13 22:20:00,
2013-04-13 18:25:00,75.8,-99.9,29.87,SSE,147,2.0,2.0,255,0.00,,,0.27,Wunderground v.1.13,2013-04-13 22:25:00,
2013-04-13 18:35:00,75.6,-99.9,29.86,SSE,147,1.0,1.0,255,0.00,,,0.27,Wunderground v.1.13,2013-04-13 22:35:00,
2013-04-13 18:40:00,75.4,-99.9,29.86,SSE,147,0.0,0.0,255,0.00,,,0.27,Wunderground v.1.13,2013-04-13 22:40:00,
2013-04-13 18:50:00,75.4,-99.9,29.87,SSE,147,0.0,2.0,255,0.00,,,0.27,Wunderground v.1.13,2013-04-13 22:50:00,
2013-04-13 18:55:00,75.3,-99.9,29.87,SSE,147,1.0,1.0,255,0.00,,,0.27,Wunderground v.1.13,2013-04-13 22:55:00,
2013-04-13 19:10:00,75.1,-99.9,29.89,SE,146,1.0,2.0,255,0.00,,,0.27,Wunderground v.1.13,2013-04-13 23:10:00,
2013-04-13 19:15:00,74.9,-99.9,29.89,SE,146,2.0,2.0,255,0.00,,,0.27,Wunderground v.1.13,2013-04-13 23:15:00,
2013-04-13 19:20:00,74.9,-99.9,29.88,SE,146,1.0,1.0,255,0.00,,,0.27,Wunderground v.1.13,2013-04-13 23:20:00,
2013-04-13 19:25:00,74.7,-99.9,29.88,SE,146,0.0,0.0,255,0.00,,,0.27,Wunderground v.1.13,2013-04-13 23:25:00,
2013-04-13 19:30:00,74.7,-99.9,29.88,SE,146,0.0,0.0,255,0.00,,,0.27,Wunderground v.1.13,2013-04-13 23:30:00,
2013-04-13 19:40:00,74.6,-99.9,29.87,SSE,147,0.0,0.0,255,0.00,,,0.27,Wunderground v.1.13,2013-04-13 23:40:00,
2013-04-13 19:45:00,74.6,-99.9,29.87,SE,146,0.0,0.0,255,0.00,,,0.27,Wunderground v.1.13,2013-04-13 23:45:00,
2013-04-13 19:55:00,74.6,-99.9,29.88,SSE,147,0.0,0.0,255,0.00,,,0.28,Wunderground v.1.13,2013-04-13 23:55:00,
2013-04-13 20:10:00,74.4,-99.9,29.89,SSE,147,0.0,0.0,255,0.00,,,0.28,Wunderground v.1.13,2013-04-14 00:10:00,
2013-04-13 20:15:00,74.4,-99.9,29.89,SE,146,0.0,2.0,255,0.00,,,0.28,Wunderground v.1.13,2013-04-14 00:15:00,
2013-04-13 20:20:00,74.4,-99.9,29.88,SE,146,0.0,0.0,255,0.00,,,0.28,Wunderground v.1.13,2013-04-14 00:20:00,
2013-04-13 20:25:00,74.4,-99.9,29.88,SE,146,0.0,0.0,255,0.00,,,0.28,Wunderground v.1.13,2013-04-14 00:25:00,
2013-04-13 20:35:00,74.2,-99.9,29.89,SE,146,0.0,0.0,255,0.00,,,0.28,Wunderground v.1.13,2013-04-14 00:35:00,
2013-04-13 20:40:00,74.0,-99.9,29.89,SE,146,0.0,0.0,255,0.00,,,0.28,Wunderground v.1.13,2013-04-14 00:40:00,
2013-04-13 20:50:00,74.0,-99.9,29.90,SE,146,0.0,0.0,255,0.00,,,0.28,Wunderground v.1.13,2013-04-14 00:50:00,
2013-04-13 21:00:00,73.9,-99.9,29.90,SE,146,0.0,0.0,255,0.00,,,0.28,Wunderground v.1.13,2013-04-14 01:00:00,
2013-04-13 21:10:00,73.9,-99.9,29.91,SE,146,0.0,0.0,255,0.00,,,0.28,Wunderground v.1.13,2013-04-14 01:10:00,
2013-04-13 21:15:00,74.0,-99.9,29.91,SE,146,0.0,0.0,255,0.00,,,0.28,Wunderground v.1.13,2013-04-14 01:15:00,
2013-04-13 21:25:00,73.9,-99.9,29.91,SE,146,0.0,0.0,255,0.00,,,0.28,Wunderground v.1.13,2013-04-14 01:25:00,
2013-04-13 21:30:00,73.9,-99.9,29.91,SE,146,0.0,0.0,255,0.00,,,0.28,Wunderground v.1.13,2013-04-14 01:30:00,
2013-04-13 21:40:00,74.0,-99.9,29.91,SE,146,0.0,0.0,255,0.00,,,0.28,Wunderground v.1.13,2013-04-14 01:40:00,
2013-04-13 21:45:00,74.0,-99.9,29.91,SE,146,0.0,0.0,255,0.00,,,0.28,Wunderground v.1.13,2013-04-14 01:45:00,
2013-04-13 21:55:00,74.2,-99.9,29.92,SE,146,0.0,0.0,255,0.00,,,0.28,Wunderground v.1.13,2013-04-14 01:55:00,
2013-04-13 22:10:00,74.4,-99.9,29.92,SE,146,0.0,0.0,255,0.00,,,0.28,Wunderground v.1.13,2013-04-14 02:10:00,
2013-04-13 22:15:00,74.4,-99.9,29.92,SE,146,0.0,0.0,255,0.00,,,0.28,Wunderground v.1.13,2013-04-14 02:15:00,
2013-04-13 22:20:00,74.4,-99.9,29.92,SE,146,0.0,0.0,255,0.00,,,0.28,Wunderground v.1.13,2013-04-14 02:20:00,
2013-04-13 22:30:00,74.6,-99.9,29.92,SE,146,0.0,0.0,255,0.00,,,0.28,Wunderground v.1.13,2013-04-14 02:30:00,
2013-04-13 22:40:00,74.6,-99.9,29.93,SE,146,0.0,0.0,255,0.00,,,0.28,Wunderground v.1.13,2013-04-14 02:40:00,
2013-04-13 22:45:00,74.4,-99.9,29.93,SE,146,0.0,0.0,255,0.00,,,0.28,Wunderground v.1.13,2013-04-14 02:45:00,
2013-04-13 22:55:00,74.4,-99.9,29.93,SSE,147,0.0,0.0,255,0.00,,,0.28,Wunderground v.1.13,2013-04-14 02:55:00,
2013-04-13 23:00:00,74.4,-99.9,29.93,SE,146,0.0,0.0,255,0.00,,,0.28,Wunderground v.1.13,2013-04-14 03:00:00,
2013-04-13 23:10:00,74.4,-99.9,29.93,SE,146,0.0,0.0,255,0.00,,,0.28,Wunderground v.1.13,2013-04-14 03:10:00,
2013-04-13 23:20:00,74.4,-99.9,29.93,SE,146,0.0,0.0,255,0.00,,,0.28,Wunderground v.1.13,2013-04-14 03:20:00,
2013-04-13 23:25:00,74.2,-99.9,29.93,SE,146,0.0,0.0,255,0.00,,,0.28,Wunderground v.1.13,2013-04-14 03:25:00,
2013-04-13 23:30:00,74.2,-99.9,29.93,SE,146,0.0,0.0,255,0.00,,,0.28,Wunderground v.1.13,2013-04-14 03:30:00,
2013-04-13 23:35:00,74.2,-99.9,29.93,SE,146,0.0,0.0,255,0.00,,,0.28,Wunderground v.1.13,2013-04-14 03:35:00,
2013-04-13 23:40:00,74.0,-99.9,29.93,SE,146,0.0,0.0,255,0.00,,,0.28,Wunderground v.1.13,2013-04-14 03:40:00,
2013-04-13 23:45:00,73.9,-99.9,29.93,SE,146,0.0,0.0,255,0.00,,,0.28,Wunderground v.1.13,2013-04-14 03:45:00,
2013-04-13 23:55:00,73.9,-99.9,29.93,SE,146,0.0,0.0,255,0.00,,,0.28,Wunderground v.1.13,2013-04-14 03:55:00,